Location: Arnold
(38.6403°N, 100.0462°W)
Time: 20:27:21
(UTC-05:00)

OTV 5 (USA 277) - Visible Passes

Search period start: 14 August 2018 00:00
Search period end: 24 August 2018 00:00
Orbit: 316 x 317 km, 54.5° (Epoch: 30 July)

Date Brightness Start Highest point End Pass type
(mag) Time Alt. Az. Time Alt. Az. Time Alt. Az.
14 Aug ? 05:51:06 10° NNW 05:53:13 20° NE 05:55:19 10° E visible
15 Aug ? 06:05:07 10° NW 06:07:47 52° NE 06:10:24 10° ESE visible
16 Aug ? 04:46:09 10° N 04:47:42 14° NNE 04:49:15 10° ENE visible
16 Aug ? 06:19:36 10° WNW 06:22:11 42° SW 06:24:45 10° SSE visible
17 Aug ? 05:01:01 19° N 05:02:21 30° NE 05:04:47 10° ESE visible
17 Aug ? 21:18:51 10° S 21:21:10 26° SE 21:23:30 10° ENE visible
17 Aug ? 22:53:28 10° W 22:54:41 17° WNW 22:54:41 17° WNW visible
18 Aug ? 05:18:04 28° SE 05:18:04 28° SE 05:19:31 10° SE visible
18 Aug ? 21:32:49 10° SW 21:35:31 89° NW 21:38:13 10° NE visible
19 Aug ? 21:47:36 10° W 21:50:01 28° NW 21:52:26 10° NNE visible
20 Aug ? 22:03:13 10° WNW 22:04:39 13° NNW 22:06:06 10° N visible
22 Aug ? 20:57:05 10° W 20:59:08 19° NW 21:01:11 10° NNE visible
